Caribou Point, Nova Scotia

10:29 AM ADT on April 26, 2017 (GMT -0300)
Caribou Point

Weather History for CWBK - April, 2013

Change the Weather History Date:

Thursday, April 25, 2013

  Actual Average Record
Temperature  
Mean Temperature 57 °F -  
Max Temperature 68 °F - - ()
Min Temperature 42 °F - - ()
Degree Days  
Heating Degree Days 8    
Growing Degree Days 7 (Base 50)    
Moisture  
Dew Point 47 °F    
Average Humidity 77    
Maximum Humidity 97    
Minimum Humidity 34    
Precipitation  
Precipitation 0.51 in - - ()
Sea Level Pressure  
Sea Level Pressure 30.03 in    
Wind  
Wind Speed 17 mph ()    
Max Wind Speed 28 mph    
Max Gust Speed 37 mph    
T = Trace of Precipitation, MM = Missing Value Source: Averaged Metar Reports

Daily Weather History Graph

Daily Weather History Graph

Search for Another Location

Airport or City:

Trip Planner

Search our weather history database for the weather conditions in past years. The results will help you decide how hot, cold, wet, or windy it might be!

Date:

Astronomy

Apr. 25, 2013 Rise Set
Actual Time 6:07 AM ADT 8:10 PM ADT
Civil Twilight 5:35 AM ADT 8:43 PM ADT
Nautical Twilight 4:55 AM ADT 9:22 PM ADT
Astronomical Twilight 4:11 AM ADT 10:07 PM ADT
Moon 8:20 PM ADT (4/25) 5:47 AM ADT (4/25)
Length of Visible Light 15h 07m
Length of Day
14h 03m
Full, 100% of the Moon is Illuminated
Apr 25
Full
Apr 25
Full
May 2
Last Quarter
May 9
New
May 18
First Quarter

Hourly Weather History & Observations

Time (ADT) Temp. Windchill Dew Point Humidity Pressure Visibility Wind Dir Wind Speed Gust Speed Precip Events Conditions
12:00 AM 50.4 °F - 48.2 °F 92% 29.94 in - South 27.6 mph 36.8 mph N/A   Unknown
1:00 AM 49.8 °F - 46.8 °F 89% 29.94 in - South 21.9 mph 34.5 mph N/A   Unknown
2:00 AM 49.8 °F - 46.6 °F 89% 29.96 in - SSW 17.3 mph 27.6 mph N/A   Unknown
3:00 AM 48 °F - 45 °F 85% 29.96 in - South 25.3 mph - -  
3:00 AM 47.7 °F - 45.0 °F 90% 29.96 in - South 25.3 mph 33.4 mph N/A   Unknown
4:00 AM 47.5 °F - 45.5 °F 93% 29.99 in - SSW 10.4 mph - N/A   Unknown
5:00 AM 48.2 °F - 45.3 °F 90% 29.98 in - SSW 20.7 mph 31.1 mph N/A   Unknown
6:00 AM 47.1 °F - 44.4 °F 90% 30.00 in - South 20.7 mph 28.8 mph N/A   Unknown
7:00 AM 46.2 °F 41.2 °F 42.8 °F 88% 30.03 in - South 10.4 mph - N/A   Unknown
8:00 AM 49.1 °F - 43.0 °F 79% 30.03 in - SSW 19.6 mph 27.6 mph N/A   Unknown
9:00 AM 51 °F - 44 °F 70% 30.04 in - South 21.9 mph - -  
9:00 AM 50.7 °F - 44.2 °F 78% 30.04 in - South 21.9 mph 28.8 mph N/A   Unknown
10:00 AM 55.4 °F - 47.5 °F 75% 30.03 in - South 18.4 mph 27.6 mph N/A   Unknown
11:00 AM 56.3 °F - 47.5 °F 72% 30.04 in - South 18.4 mph - N/A   Unknown
12:00 PM 63.7 °F - 50.2 °F 61% 30.04 in - SSW 15.0 mph 24.2 mph N/A   Unknown
1:00 PM 65.8 °F - 48.2 °F 53% 30.04 in - SSW 19.6 mph 25.3 mph N/A   Unknown
2:00 PM 64.4 °F - 47.1 °F 53% 30.01 in - South 27.6 mph 34.5 mph N/A   Unknown
3:00 PM 67 °F - 45 °F 34% 30.01 in - SSW 24.2 mph - -  
3:00 PM 67.1 °F - 45.3 °F 45% 30.01 in - SSW 24.2 mph 31.1 mph N/A   Unknown
4:00 PM 65.8 °F - 47.7 °F 52% 30.02 in - SSW 13.8 mph 24.2 mph N/A   Unknown
5:00 PM 63.0 °F - 50.7 °F 64% 30.04 in - SSW 11.5 mph 18.4 mph N/A   Unknown
6:00 PM 61.3 °F - 52.0 °F 71% 30.05 in - SSW 12.7 mph 20.7 mph N/A   Unknown
7:00 PM 60.3 °F - 52.3 °F 75% 30.07 in - SSW 8.1 mph - N/A   Unknown
8:00 PM 55.4 °F - 52.2 °F 89% 30.09 in - SW 4.6 mph - N/A   Unknown
9:00 PM 56 °F - 54 °F 91% 30.12 in - WSW 5.8 mph - -  
9:00 PM 56.1 °F - 54.1 °F 93% 30.12 in - WSW 5.8 mph - N/A   Unknown
10:00 PM 46.4 °F - 44.8 °F 94% 30.14 in - North 2.3 mph - N/A   Unknown
11:00 PM 42.6 °F 38.4 °F 41.7 °F 97% 30.17 in - NW 6.9 mph - N/A   Unknown